• în Republica Moldova
  • Lista ţărilor
  • Pe 7 zile
  • Temperatura apei
  • Hartă satelitară
  • Meteo pe hartă
  • Widget-uri
  • user-avatar
    Intrare

    Meteo pe oră la Mayrhofen

    Astăzi, 24 Februarie, Sâmbătă

    Timp Temperatura Precipitaţii Vânt Presiune Umiditate
    00:00 -8°C° 0 mm 1 m/s 609 mmHg 85%
    01:00 -8°C° 0 mm 1 m/s 609 mmHg 82%
    02:00 -8°C° 0 mm 1 m/s 609 mmHg 83%
    03:00 -8°C° 0 mm 1 m/s 609 mmHg 83%
    04:00 -8°C° 0 mm 1 m/s 609 mmHg 84%
    05:00 -8°C° 0 mm 1 m/s 609 mmHg 84%
    06:00 -8°C° 0 mm 1 m/s 609 mmHg 85%
    07:00 -11°C° 0 mm 1 m/s 609 mmHg 84%
    08:00 -8°C° 0 mm 1 m/s 610 mmHg 83%
    09:00 -4°C° 0 mm 1 m/s 611 mmHg 81%
    10:00 -2°C° 0 mm 1 m/s 612 mmHg 80%
    11:00 -1°C° 0 mm 1 m/s 612 mmHg 84%
    12:00 -1°C° 0 mm 1 m/s 612 mmHg 88%
    13:00 -3°C° 0 mm 2 m/s 612 mmHg 92%
    14:00 -3°C° 0 mm 2 m/s 611 mmHg 92%
    15:00 -3°C° 0 mm 2 m/s 611 mmHg 92%
    16:00 -3°C° 0 mm 2 m/s 611 mmHg 91%
    17:00 -3°C° 0,1 mm 1 m/s 611 mmHg 92%
    18:00 -4°C° 0,1 mm 1 m/s 611 mmHg 94%
    19:00 -6°C° 0,1 mm 1 m/s 611 mmHg 95%
    20:00 -8°C° 0 mm 1 m/s 610 mmHg 95%
    21:00 -9°C° 0 mm 1 m/s 610 mmHg 95%
    22:00 -10°C° 0 mm 1 m/s 610 mmHg 95%
    23:00 -10°C° 0 mm 1 m/s 610 mmHg 94%

    Mâine, 25 Februarie, Duminică

    Timp Temperatura Precipitaţii Vânt Presiune Umiditate
    00:00 -11°C° 0 mm 1 m/s 610 mmHg 93%
    01:00 -12°C° 0 mm 1 m/s 610 mmHg 93%
    02:00 -12°C° 0 mm 1 m/s 609 mmHg 92%
    03:00 -13°C° 0 mm 1 m/s 609 mmHg 92%
    04:00 -13°C° 0 mm 1 m/s 609 mmHg 91%
    05:00 -14°C° 0 mm 1 m/s 609 mmHg 91%
    06:00 -15°C° 0 mm 1 m/s 609 mmHg 92%
    07:00 -15°C° 0 mm 1 m/s 609 mmHg 92%
    08:00 -14°C° 0 mm 1 m/s 609 mmHg 89%
    09:00 -14°C° 0 mm 2 m/s 610 mmHg 86%
    10:00 -13°C° 0 mm 2 m/s 610 mmHg 83%
    11:00 -12°C° 0 mm 2 m/s 610 mmHg 81%
    12:00 -12°C° 0 mm 2 m/s 610 mmHg 80%
    13:00 -10°C° 0 mm 2 m/s 611 mmHg 78%
    14:00 -12°C° 0 mm 2 m/s 610 mmHg 80%
    15:00 -12°C° 0 mm 2 m/s 610 mmHg 83%
    16:00 -13°C° 0 mm 2 m/s 609 mmHg 85%
    17:00 -15°C° 0,1 mm 2 m/s 609 mmHg 88%
    18:00 -17°C° 0,1 mm 2 m/s 609 mmHg 91%
    19:00 -19°C° 0,1 mm 2 m/s 608 mmHg 94%
    20:00 -20°C° 0 mm 2 m/s 608 mmHg 93%
    21:00 -19°C° 0 mm 1 m/s 608 mmHg 92%
    22:00 -20°C° 0 mm 1 m/s 607 mmHg 92%
    23:00 -20°C° 0 mm 1 m/s 607 mmHg 91%

    Poimâine, 26 Februarie, Luni

    Timp Temperatura Precipitaţii Vânt Presiune Umiditate
    00:00 -21°C° 0 mm 1 m/s 607 mmHg 90%
    01:00 -21°C° 0 mm 1 m/s 607 mmHg 90%
    02:00 -22°C° 0 mm 1 m/s 606 mmHg 90%
    03:00 -22°C° 0 mm 1 m/s 606 mmHg 90%
    04:00 -22°C° 0 mm 1 m/s 606 mmHg 90%
    05:00 -23°C° 0 mm 1 m/s 606 mmHg 90%
    06:00 -23°C° 0 mm 1 m/s 606 mmHg 91%
    07:00 -23°C° 0 mm 1 m/s 606 mmHg 91%
    08:00 -24°C° 0 mm 2 m/s 606 mmHg 89%
    09:00 -23°C° 0 mm 2 m/s 607 mmHg 86%
    10:00 -20°C° 0 mm 2 m/s 608 mmHg 84%
    11:00 -19°C° 0 mm 2 m/s 608 mmHg 82%
    12:00 -19°C° 0 mm 3 m/s 608 mmHg 80%
    13:00 -18°C° 0 mm 3 m/s 608 mmHg 79%
    14:00 -18°C° 0,1 mm 3 m/s 607 mmHg 80%
    15:00 -19°C° 0,1 mm 3 m/s 607 mmHg 81%
    16:00 -19°C° 0,1 mm 3 m/s 607 mmHg 83%
    17:00 -19°C° 0,1 mm 2 m/s 607 mmHg 86%
    18:00 -20°C° 0,1 mm 2 m/s 606 mmHg 89%
    19:00 -23°C° 0,1 mm 2 m/s 606 mmHg 92%
    20:00 -23°C° 0,1 mm 2 m/s 606 mmHg 93%
    21:00 -21°C° 0,1 mm 1 m/s 606 mmHg 93%
    22:00 -21°C° 0,1 mm 1 m/s 606 mmHg 93%
    23:00 -22°C° 0,1 mm 1 m/s 606 mmHg 92%

    27 Februarie, Marţi

    Timp Temperatura Precipitaţii Vânt Presiune Umiditate
    00:00 -22°C° 0,1 mm 1 m/s 605 mmHg 92%
    01:00 -23°C° 0,1 mm 1 m/s 605 mmHg 91%
    02:00 -23°C° 0 mm 1 m/s 605 mmHg 91%
    03:00 -23°C° 0 mm 1 m/s 604 mmHg 91%
    04:00 -23°C° 0 mm 1 m/s 604 mmHg 91%
    05:00 -24°C° 0 mm 1 m/s 604 mmHg 91%
    06:00 -24°C° 0 mm 1 m/s 604 mmHg 90%
    07:00 -24°C° 0 mm 1 m/s 604 mmHg 90%
    08:00 -22°C° 0 mm 1 m/s 604 mmHg 87%
    09:00 -19°C° 0 mm 1 m/s 605 mmHg 84%
    10:00 -17°C° 0 mm 1 m/s 606 mmHg 81%
    11:00 -16°C° 0 mm 1 m/s 606 mmHg 78%
    12:00 -15°C° 0 mm 1 m/s 606 mmHg 76%
    13:00 -14°C° 0 mm 1 m/s 606 mmHg 73%
    14:00 -14°C° 0,1 mm 1 m/s 606 mmHg 76%
    15:00 -16°C° 0,1 mm 2 m/s 606 mmHg 78%
    16:00 -16°C° 0,1 mm 2 m/s 606 mmHg 81%
    17:00 -16°C° 0,1 mm 1 m/s 606 mmHg 85%
    18:00 -17°C° 0,1 mm 1 m/s 605 mmHg 89%
    19:00 -19°C° 0,1 mm 1 m/s 605 mmHg 93%
    20:00 -20°C° 0 mm 1 m/s 605 mmHg 93%
    21:00 -21°C° 0 mm 1 m/s 605 mmHg 93%
    22:00 -21°C° 0 mm 1 m/s 605 mmHg 92%
    23:00 -21°C° 0 mm 1 m/s 605 mmHg 91%

    28 Februarie, Miercuri

    Timp Temperatura Precipitaţii Vânt Presiune Umiditate
    00:00 -22°C° 0 mm 1 m/s 605 mmHg 89%
    01:00 -22°C° 0 mm 1 m/s 605 mmHg 88%
    02:00 -22°C° 0 mm 1 m/s 605 mmHg 87%
    03:00 -22°C° 0 mm 1 m/s 605 mmHg 87%
    04:00 -22°C° 0 mm 1 m/s 605 mmHg 86%
    05:00 -22°C° 0 mm 1 m/s 605 mmHg 85%
    06:00 -23°C° 0 mm 1 m/s 605 mmHg 85%
    07:00 -23°C° 0 mm 1 m/s 605 mmHg 84%
    08:00 -20°C° 0 mm 1 m/s 606 mmHg 78%
    09:00 -17°C° 0 mm 1 m/s 608 mmHg 72%
    10:00 -14°C° 0 mm 1 m/s 609 mmHg 66%
    11:00 -12°C° 0 mm 1 m/s 609 mmHg 63%
    12:00 -11°C° 0 mm 1 m/s 609 mmHg 59%
    13:00 -10°C° 0 mm 1 m/s 610 mmHg 56%
    14:00 -10°C° 0 mm 1 m/s 610 mmHg 60%
    15:00 -12°C° 0 mm 2 m/s 610 mmHg 64%
    16:00 -10°C° 0 mm 2 m/s 610 mmHg 68%
    17:00 -13°C° 0 mm 2 m/s 609 mmHg 75%
    18:00 -15°C° 0 mm 2 m/s 608 mmHg 81%
    19:00 -17°C° 0 mm 2 m/s 608 mmHg 87%
    20:00 -17°C° 0 mm 2 m/s 608 mmHg 86%
    21:00 -17°C° 0 mm 2 m/s 608 mmHg 86%
    22:00 -17°C° 0 mm 2 m/s 608 mmHg 85%
    23:00 -17°C° 0 mm 2 m/s 608 mmHg 84%

    1 Martie, Joi

    Timp Temperatura Precipitaţii Vânt Presiune Umiditate
    00:00 -18°C° 0 mm 3 m/s 608 mmHg 83%
    01:00 -18°C° 0 mm 3 m/s 608 mmHg 81%
    02:00 -18°C° 0 mm 3 m/s 608 mmHg 82%
    03:00 -17°C° 0 mm 3 m/s 608 mmHg 82%
    04:00 -16°C° 0 mm 3 m/s 608 mmHg 83%
    05:00 -16°C° 0 mm 3 m/s 607 mmHg 83%
    06:00 -16°C° 0 mm 3 m/s 607 mmHg 83%
    07:00 -15°C° 0 mm 3 m/s 607 mmHg 83%
    08:00 -14°C° 0 mm 3 m/s 607 mmHg 83%
    09:00 -12°C° 0 mm 3 m/s 607 mmHg 82%
    10:00 -9°C° 0 mm 3 m/s 608 mmHg 81%
    11:00 -8°C° 0,1 mm 3 m/s 608 mmHg 82%
    12:00 -7°C° 0,1 mm 3 m/s 608 mmHg 83%
    13:00 -6°C° 0,1 mm 3 m/s 607 mmHg 84%
    14:00 -6°C° 0,2 mm 3 m/s 607 mmHg 86%
    15:00 -6°C° 0,2 mm 3 m/s 607 mmHg 87%
    16:00 -6°C° 0,2 mm 3 m/s 606 mmHg 89%
    17:00 -6°C° 0,2 mm 3 m/s 606 mmHg 90%
    18:00 -7°C° 0,2 mm 3 m/s 606 mmHg 91%
    19:00 -8°C° 0,2 mm 3 m/s 605 mmHg 92%
    20:00 -8°C° 0,1 mm 3 m/s 605 mmHg 92%
    21:00 -7°C° 0,1 mm 2 m/s 605 mmHg 91%
    22:00 -7°C° 0,1 mm 2 m/s 605 mmHg 91%
    23:00 -7°C° 0 mm 2 m/s 604 mmHg 90%
    Arată mai mult